Wind_Speed
27 27 26 25 25 25 25 24 24 24 24 24 24 24 24 25 25 25 26 26 26 26 26 26 25 25 25 26 28 28 28 26 26 27 28 26 23 21 18 19 22 25 29 33 36 40 42 43 43 43 44 44 43 43 44 46 49 50 51 52 54 56 58 60 65 69 69 67 67 66 65 65 66 65 64 64 64 64 64 63 62 61 61 63 64
27 27 27 26 26 26 26 26 26 26 26 26 26 25 25 25 26 26 26 26 26 26 26 26 25 24 24 25 27 28 27 26 25 24 25 24 23 21 17 15 16 19 23 28 33 37 39 40 41 42 42 43 43 42 42 43 45 48 49 50 51 53 56 59 63 67 69 68 68 68 66 65 66 66 66 66 66 65 66 66 65 64 63 62 63
28 27 27 27 27 28 27 27 27 27 27 27 27 27 26 26 26 26 26 26 26 26 25 25 24 23 23 24 26 27 27 26 25 24 23 23 21 20 18 15 12 13 16 21 27 32 35 37 38 39 40 41 42 41 42 42 42 44 47 49 49 49 51 55 59 64 67 68 68 68 67 66 65 65 65 66 67 67 67 67 66 66 66 64 64
29 28 28 27 28 29 29 28 27 27 28 28 28 28 27 27 26 26 26 25 25 25 25 24 23 22 21 23 25 26 26 26 25 23 22 22 21 19 17 15 12 10 11 16 22 27 31 33 34 35 37 39 40 40 41 41 42 43 45 49 50 50 50 52 55 59 62 65 66 67 68 67 66 65 63 64 66 67 68 68 67 67 67 66 65
29 29 28 28 28 29 29 29 28 28 28 29 29 28 28 27 27 26 25 25 24 24 24 23 22 20 20 22 24 25 25 25 23 21 20 20 19 19 17 15 12 10 9 12 17 23 27 28 30 31 34 35 36 37 38 39 40 41 42 46 51 53 53 53 53 55 57 61 63 65 66 67 67 66 63 62 63 64 66 68 68 68 68 67 67
29 29 29 29 29 29 30 29 29 28 28 29 29 29 28 27 27 26 25 25 24 23 22 22 21 19 19 20 22 23 23 23 21 19 18 18 17 17 17 15 12 10 9 11 15 20 23 26 27 29 32 33 33 34 36 36 37 38 39 42 46 51 55 57 57 57 57 59 61 63 64 66 67 67 65 63 62 62 63 64 66 67 68 68 68
29 29 29 29 29 29 29 29 29 29 28 29 29 28 28 27 26 25 25 24 23 22 21 20 20 19 18 19 21 22 21 20 19 17 17 17 16 15 15 14 13 11 9 11 14 18 21 24 26 28 30 31 32 32 34 35 36 37 39 40 42 45 50 54 58 60 62 62 64 64 64 63 64 66 65 63 61 61 62 64 65 66 67 68 68
30 28 28 28 29 29 29 29 29 29 29 29 28 28 27 27 26 25 24 24 23 21 20 19 19 18 18 19 20 21 21 19 18 17 17 16 16 14 14 13 13 12 10 10 12 16 20 23 25 27 28 30 30 31 32 33 34 35 37 40 41 42 45 50 54 58 60 63 63 62 60 59 59 61 62 61 60 61 61 62 65 65 65 65 66
29 28 27 27 27 28 28 29 29 29 29 29 28 28 27 26 25 24 24 23 22 21 20 18 18 18 18 19 19 20 20 18 17 16 16 15 14 14 14 14 13 12 11 11 11 13 17 21 24 26 28 30 30 31 32 33 34 34 35 37 40 41 44 48 51 52 54 57 58 56 54 55 55 55 56 57 57 58 57 58 61 64 63 62 63
29 28 27 26 26 26 27 28 29 29 29 29 28 28 27 26 25 24 23 23 22 21 20 19 18 17 17 18 19 19 19 18 16 15 14 13 11 11 12 14 14 13 12 11 11 12 14 17 22 25 27 29 30 31 32 33 33 33 33 35 37 39 42 45 47 47 48 51 54 53 52 52 52 51 51 51 50 52 54 54 57 60 60 60 61
29 28 27 26 25 25 25 27 28 29 30 29 28 28 27 26 25 23 23 22 22 21 20 19 19 17 16 18 18 18 18 17 16 14 13 12 11 9 9 11 13 14 14 13 11 12 13 14 17 21 25 27 29 30 31 32 33 33 33 34 35 37 39 41 42 42 42 43 46 50 50 50 49 47 47 46 45 47 50 51 52 54 56 57 58
29 28 27 26 25 25 25 25 27 28 29 29 29 28 27 26 25 23 22 22 22 22 20 20 20 18 16 17 17 17 17 16 15 13 11 11 12 12 11 11 12 13 14 14 13 12 12 13 14 16 20 23 26 28 29 31 32 33 33 33 34 36 37 38 39 40 40 38 38 42 45 47 47 45 43 42 43 44 45 46 48 50 51 52 55
28 27 27 26 25 25 24 25 25 27 28 28 28 27 26 26 25 24 23 22 22 22 21 21 21 19 17 16 17 17 15 16 14 11 11 11 13 17 17 15 14 12 13 14 13 12 11 11 11 13 14 18 22 24 26 28 30 31 33 33 34 35 36 37 38 39 40 40 38 38 40 43 44 42 40 39 40 41 41 41 42 44 47 49 51
27 27 26 26 25 25 24 24 24 26 27 27 27 27 26 25 24 23 23 22 22 22 21 21 21 21 18 16 17 17 15 15 14 11 10 9 11 16 19 17 14 13 12 13 13 12 11 10 10 10 11 12 15 18 21 25 27 29 31 33 33 33 34 36 38 39 39 40 40 39 38 40 41 40 38 38 39 39 39 37 37 39 42 44 45
28 27 26 26 25 25 25 25 24 25 26 26 26 26 26 25 24 23 22 22 23 22 22 22 22 22 20 17 16 17 16 15 14 12 11 9 10 15 18 16 14 13 12 13 12 12 12 11 10 9 9 9 10 13 16 19 22 25 28 30 32 32 33 33 35 37 38 39 39 38 38 39 39 38 38 37 37 38 37 36 36 36 37 38 40
28 27 26 26 25 25 24 24 24 25 25 25 25 25 25 25 23 22 21 21 22 23 22 22 22 22 21 19 17 17 18 16 15 14 14 13 15 18 19 18 16 14 14 14 14 13 13 13 12 10 9 9 9 10 12 14 18 20 23 26 28 31 32 32 33 35 36 37 38 37 37 37 37 36 35 35 36 36 36 36 36 35 34 35 36
29 27 26 26 25 25 25 24 24 24 24 24 24 24 23 24 23 22 21 21 21 22 22 22 22 22 22 22 20 18 18 18 17 16 15 16 19 19 19 19 20 17 15 14 13 13 14 15 15 13 11 10 9 10 11 13 16 18 20 22 25 27 29 30 32 34 34 35 36 36 36 36 35 34 33 34 36 36 35 35 34 31 31 32 33
30 28 27 26 26 25 25 24 24 24 24 23 22 23 23 23 22 21 20 20 20 21 21 22 22 22 22 23 22 21 19 19 19 18 17 18 21 20 18 19 21 20 18 16 14 13 13 15 17 17 15 12 12 12 12 13 14 15 17 19 22 24 25 26 29 31 33 34 35 35 35 34 33 34 34 36 37 35 33 33 30 28 30 32 31
30 29 27 26 26 25 25 24 23 23 23 23 22 22 22 22 21 21 20 19 19 19 20 21 22 23 23 23 23 23 21 20 20 19 18 19 22 22 18 18 21 23 22 20 17 16 14 14 15 17 17 15 15 16 15 15 14 12 13 16 18 17 18 21 25 27 29 32 32 32 32 30 30 32 35 37 37 36 34 33 31 29 30 31 30
31 29 28 26 25 25 25 24 23 22 22 22 22 21 21 21 21 20 20 18 17 17 18 19 20 22 23 24 23 23 23 22 21 21 21 21 23 22 20 19 21 23 23 22 19 18 17 15 14 15 16 17 17 18 18 18 17 14 12 12 12 10 13 18 20 22 25 28 30 31 30 29 30 32 36 38 39 38 37 36 34 32 31 30 29
30 29 28 27 25 25 24 24 23 22 22 22 22 21 20 20 20 20 19 18 16 16 17 18 19 20 22 23 23 23 24 23 22 23 23 23 24 23 22 21 22 24 24 22 21 20 19 17 15 14 15 16 17 19 20 20 19 19 17 13 9 8 13 16 17 18 21 24 27 29 31 31 32 33 36 38 39 40 40 39 37 36 35 33 32
30 29 28 27 26 25 24 24 23 22 21 21 22 22 20 19 19 20 19 18 17 17 17 17 18 19 21 22 23 23 24 24 24 24 24 23 24 24 24 23 23 25 25 22 22 22 21 19 18 16 17 17 16 17 20 21 22 22 21 18 12 11 13 15 16 17 19 21 24 27 29 31 32 33 35 36 38 39 41 41 41 39 39 38 36
29 28 27 27 26 25 24 23 23 22 21 20 21 22 21 19 19 19 19 20 19 18 17 17 18 19 20 21 22 22 23 23 24 24 23 23 24 25 25 25 25 26 25 23 23 23 22 21 20 18 18 18 17 17 19 22 24 24 22 19 17 14 14 16 17 17 17 19 21 24 27 29 31 32 34 35 36 37 39 40 41 41 41 40 39
29 28 27 26 26 25 24 23 22 22 21 20 20 21 21 19 18 18 20 21 21 20 19 19 19 19 19 19 20 21 22 22 23 24 23 24 24 25 26 26 26 26 26 25 24 23 22 21 21 19 19 19 19 18 19 20 22 23 22 21 20 18 17 18 19 19 19 19 21 23 24 26 29 31 32 33 34 35 37 38 39 40 40 38 37
28 27 26 25 25 25 24 23 22 22 21 19 19 19 20 19 18 17 19 21 22 22 21 20 19 19 19 18 19 21 23 23 23 24 24 24 25 26 26 26 27 27 26 25 24 24 23 22 20 19 19 19 19 19 19 19 20 21 23 24 23 22 21 21 21 21 21 22 22 22 22 23 26 29 31 33 34 35 37 38 39 40 40 37 34
27 26 25 25 25 24 24 23 22 22 20 19 18 18 19 19 18 16 16 19 21 22 21 20 19 19 19 18 19 22 24 24 24 25 25 25 25 25 26 27 27 27 26 24 23 23 23 22 21 19 18 18 19 19 19 19 19 20 21 23 25 25 25 24 23 22 22 21 20 20 20 20 22 25 29 34 36 36 38 40 40 40 40 38 35
26 25 24 24 24 23 23 23 23 22 21 19 17 17 17 18 17 16 14 15 17 19 19 19 18 18 18 19 20 22 24 24 25 25 24 24 24 24 25 27 27 26 25 23 22 22 22 22 20 19 18 18 19 19 19 19 19 20 21 22 23 25 27 27 26 26 24 21 19 18 19 20 21 23 27 32 36 37 38 40 41 42 41 39 38
26 24 23 23 23 22 23 23 23 23 21 19 18 17 16 16 16 16 15 13 14 16 17 17 17 16 17 19 20 22 22 23 23 23 23 23 23 23 24 26 25 24 22 22 22 21 21 21 20 20 19 18 18 19 19 19 19 19 21 22 23 24 26 27 29 28 26 23 21 20 19 19 20 22 25 29 33 36 38 40 41 42 42 41 40
25 23 23 22 22 21 22 22 22 23 22 20 19 17 16 15 15 15 15 14 13 14 15 15 15 14 16 17 19 19 20 20 21 21 22 22 21 22 23 22 21 20 21 22 22 21 20 20 20 20 19 18 17 18 19 20 20 20 21 22 23 25 25 26 28 28 27 25 22 20 19 18 18 20 22 25 29 33 36 39 41 42 42 42 41
24 23 22 21 20 20 20 21 21 22 22 21 20 18 16 15 15 15 15 14 13 14 14 14 13 12 12 14 16 16 16 17 18 19 20 21 21 21 19 17 16 16 18 19 20 20 20 19 19 20 20 19 19 19 20 21 21 22 22 23 24 25 26 26 27 27 27 26 23 20 18 17 17 18 21 23 26 29 32 36 38 39 40 40 40
24 22 21 20 19 19 19 19 20 21 22 22 21 19 17 15 14 14 14 13 13 13 13 13 12 11 11 11 12 13 14 14 15 17 18 18 18 18 16 14 13 13 13 14 16 17 18 19 19 20 20 20 20 20 20 21 22 22 23 23 23 24 25 26 26 26 26 25 24 21 18 16 16 18 19 20 22 25 27 29 31 33 34 35 37
25 22 20 19 18 18 18 18 19 20 21 21 21 20 19 16 14 14 13 13 13 13 13 13 12 11 11 11 10 11 12 13 14 15 15 16 15 14 13 12 12 11 11 12 13 14 15 16 17 17 18 18 18 19 19 20 21 21 21 21 22 24 24 25 25 25 25 25 25 22 18 15 16 18 19 20 21 22 24 26 27 29 31 33 35
25 23 20 19 18 17 17 17 18 19 20 20 20 21 20 18 16 14 13 13 12 12 13 13 12 11 11 11 10 10 11 12 14 14 14 13 12 12 11 11 10 9 10 10 11 11 11 12 13 14 15 15 16 17 18 18 19 19 19 19 20 22 23 24 24 25 25 26 26 24 21 18 17 17 19 21 23 25 26 28 30 31 33 34 35
25 23 21 19 17 16 15 16 16 17 18 19 19 19 20 19 18 16 14 13 13 12 12 13 13 12 11 10 10 10 10 12 13 13 12 12 12 11 11 10 9 8 8 8 8 9 10 10 11 12 13 13 14 15 15 16 17 17 17 17 18 20 21 22 23 24 26 27 27 25 23 22 21 19 18 19 21 24 26 27 29 31 33 34 34
25 23 21 19 17 16 15 15 15 16 17 17 18 18 18 18 18 17 16 15 14 14 13 12 12 12 11 10 10 10 10 10 11 11 10 10 10 10 10 10 9 8 7 8 8 9 10 11 11 11 12 12 12 13 13 14 15 15 16 16 17 18 19 21 22 23 24 26 27 27 26 25 24 23 21 20 20 22 24 25 26 27 28 30 31
25 23 21 19 17 16 14 14 14 15 15 16 16 16 16 16 16 16 15 15 15 15 14 13 12 12 11 10 10 10 10 10 10 10 9 9 9 9 9 9 8 8 7 8 8 9 10 10 11 12 12 12 12 12 12 12 13 14 15 16 16 16 17 19 20 21 23 24 26 28 28 29 28 28 27 25 24 24 25 26 26 26 26 26 28
24 22 21 19 17 16 14 13 14 14 14 15 15 15 15 15 15 15 15 15 14 15 14 14 13 12 11 10 9 9 9 9 9 8 8 8 9 9 9 9 9 9 9 9 9 9 9 10 11 11 12 12 11 11 11 11 12 12 14 15 15 16 17 17 18 20 22 23 24 25 27 30 32 32 32 30 29 29 29 28 28 27 26 26 26
24 23 21 19 17 16 14 13 13 13 13 14 15 14 14 14 14 14 14 14 14 14 14 14 14 13 12 11 9 9 8 8 8 8 7 7 7 7 7 8 9 10 10 10 10 10 10 11 11 11 11 11 12 12 12 12 12 12 13 14 15 15 16 17 18 19 21 22 24 25 26 27 30 33 34 34 34 33 33 32 31 30 28 27 27
25 23 21 19 18 16 14 13 13 12 13 13 14 14 14 13 13 13 13 13 14 13 13 13 13 14 13 12 11 10 9 9 9 9 8 8 8 7 7 8 8 9 10 10 10 10 10 11 11 11 12 12 12 12 12 12 12 12 12 13 14 15 16 16 17 18 19 21 23 25 26 27 28 29 32 35 36 37 37 36 35 33 31 29 28
25 24 21 19 18 17 15 13 12 12 12 12 13 13 13 13 12 12 12 12 13 13 12 12 12 13 13 13 12 11 11 10 10 11 11 11 11 10 9 9 9 9 9 10 10 10 10 11 11 11 11 12 12 12 12 12 12 12 12 12 12 14 15 16 17 18 19 20 21 23 24 26 27 28 29 32 34 38 39 39 37 36 34 31 28
25 23 21 19 18 17 15 14 13 12 12 12 12 12 13 12 12 11 11 12 12 12 12 11 11 12 12 13 12 12 12 11 11 12 12 12 12 12 12 11 10 10 9 9 9 9 10 10 10 11 11 11 11 12 12 12 12 12 12 12 12 12 14 16 17 18 18 19 20 21 22 24 25 26 28 29 31 34 38 39 39 37 35 32 29
24 23 21 19 18 17 16 14 13 12 11 11 12 12 12 12 12 11 11 11 11 11 11 11 11 11 11 12 12 12 11 11 11 11 11 12 12 13 13 12 12 11 10 10 9 9 9 9 10 10 10 11 11 11 11 11 11 11 11 11 11 12 12 14 16 17 18 18 19 20 21 22 23 24 25 26 27 28 32 36 38 37 35 34 32
23 23 21 20 18 18 17 15 13 12 12 11 11 12 12 12 11 11 10 10 10 10 10 10 10 10 11 11 12 12 11 11 10 10 10 11 11 11 12 11 11 11 11 11 10 10 9 9 9 10 10 10 10 10 10 10 11 11 11 11 11 11 12 12 13 15 16 17 18 19 20 21 22 23 24 24 25 25 27 31 36 37 36 36 35
23 22 21 20 19 18 17 15 14 13 12 11 11 12 12 11 11 10 10 10 9 9 9 9 9 10 10 10 11 11 11 11 11 10 10 10 10 10 10 10 10 10 10 11 11 10 10 10 10 10 10 10 10 10 10 10 10 10 11 11 11 11 11 11 11 12 13 15 16 17 19 20 21 22 23 23 23 23 24 27 33 36 37 37 36
22 22 21 20 19 19 18 16 15 14 13 12 12 12 12 11 11 10 10 9 9 9 9 8 8 9 9 10 10 10 10 10 10 10 10 10 10 10 10 10 10 10 10 10 10 10 10 10 10 10 10 10 10 10 10 10 10 10 10 10 11 11 11 11 11 11 12 12 13 14 16 18 20 21 23 23 23 22 21 24 29 35 37 37 36
22 22 21 20 20 19 18 17 16 15 13 12 12 12 12 12 11 10 10 9 9 9 9 8 8 8 9 9 10 10 10 9 9 9 9 10 10 11 11 11 11 11 11 11 11 11 11 11 11 11 11 11 11 10 10 10 10 10 11 10 10 10 10 11 11 11 11 12 12 13 14 15 17 20 22 23 23 22 21 21 24 30 35 38 38
21 21 21 20 20 19 19 18 17 15 14 13 12 12 12 12 11 10 10 9 9 9 9 8 8 9 9 9 9 9 9 9 9 9 9 9 9 10 10 11 11 11 12 12 12 12 12 12 12 12 12 12 12 12 11 11 11 11 11 11 11 11 10 10 10 11 11 11 12 12 12 13 15 17 19 21 23 23 22 21 21 25 30 35 38
21 21 21 20 20 20 19 19 18 17 15 14 13 13 13 12 12 11 10 10 10 9 9 9 9 9 9 9 10 10 9 9 9 9 8 8 9 9 9 10 10 11 11 12 12 12 12 12 12 12 12 12 12 12 12 12 12 12 12 12 12 12 12 11 11 10 10 11 11 12 12 12 13 14 16 18 20 21 22 23 23 23 25 28 31
20 20 21 20 20 20 20 19 19 18 16 15 14 14 13 13 12 12 11 11 10 10 10 9 9 9 9 10 10 10 10 10 10 9 9 9 9 9 9 9 10 10 11 11 12 12 12 13 13 13 13 13 13 13 13 13 13 13 13 13 14 14 14 13 13 12 11 11 11 11 11 12 12 13 14 15 16 17 19 21 23 24 26 27 28
19 20 20 20 21 21 20 20 19 18 17 16 15 15 14 14 13 13 12 12 11 11 10 10 9 9 9 10 10 10 11 11 10 10 10 10 9 9 9 9 10 10 10 10 11 11 12 12 13 13 13 13 14 14 14 14 14 14 14 14 15 15 15 15 15 14 13 13 12 12 12 12 12 13 13 14 15 16 16 17 19 21 23 25 27
19 19 20 20 21 21 20 20 20 19 18 17 16 15 15 15 14 14 13 13 13 12 12 11 11 10 10 10 11 11 11 11 11 11 11 11 11 11 11 10 10 10 10 10 11 11 11 12 12 13 13 14 14 15 15 15 15 15 15 16 16 16 16 16 16 16 16 15 14 14 13 13 13 13 13 14 15 15 16 17 17 18 19 21 23
Wind_Direction
293 292 291 291 289 288 289 289 291 293 293 294 296 297 298 300 301 303 304 304 303 302 302 305 310 315 320 326 328 327 324 320 321 326 331 336 335 326 308 285 266 251 239 233 229 227 227 227 228 229 231 233 234 233 233 233 234 235 238 239 239 239 238 238 237 234 232 232 230 228 228 228 228 228 229 230 231 231 230 230 230 230 231 231 231
291 290 290 290 290 288 287 287 288 290 291 292 293 294 296 297 299 301 303 304 304 302 301 303 307 313 319 324 326 326 324 320 319 324 331 338 342 339 328 306 281 260 244 234 229 227 227 227 228 229 231 233 234 235 235 235 234 234 235 237 240 241 240 240 240 238 236 234 231 230 230 229 229 228 228 229 230 231 231 231 231 230 231 231 231
292 290 289 289 289 287 286 286 286 287 289 290 292 293 294 294 296 299 301 303 303 302 301 302 305 310 317 322 324 325 324 322 320 323 330 337 343 346 342 330 308 277 254 239 231 229 229 229 229 229 230 233 234 236 238 239 239 237 235 234 237 240 241 241 241 241 241 239 236 233 232 230 230 229 229 229 229 230 231 231 232 231 231 231 231
295 292 290 288 288 287 285 285 285 286 287 288 290 291 292 293 294 297 299 301 302 302 302 302 303 308 315 320 323 325 325 323 322 322 327 334 340 346 346 341 330 303 268 245 233 231 231 232 231 231 231 234 235 236 239 241 242 242 238 234 233 234 237 240 242 242 243 243 241 238 236 233 231 229 229 230 230 229 229 230 231 232 232 232 232
299 293 290 288 287 285 284 285 285 285 286 287 288 289 290 291 292 294 296 298 300 301 300 301 302 306 313 319 322 324 324 323 322 322 324 329 335 341 345 343 335 317 285 256 239 233 232 232 232 232 233 234 236 237 239 241 243 243 242 237 234 233 233 235 239 241 242 243 242 241 240 238 235 232 231 231 231 231 230 229 229 231 232 232 233
302 296 290 287 286 285 285 285 285 286 286 286 286 287 287 288 289 291 292 294 297 298 298 300 301 305 311 317 320 322 323 322 323 323 322 324 329 335 338 340 335 319 291 266 249 240 235 233 231 231 233 235 236 238 241 243 243 244 244 241 238 235 234 234 235 237 240 242 243 244 242 240 238 236 234 234 234 233 233 231 229 230 231 231 232
304 300 293 288 286 285 285 285 286 286 286 286 286 286 287 286 286 287 288 290 292 294 296 297 299 303 309 315 318 320 320 321 323 324 322 322 324 326 329 333 333 325 300 273 257 248 243 239 236 234 235 237 238 239 241 243 245 245 245 244 242 240 239 238 237 238 240 242 245 246 245 243 241 239 238 238 238 236 235 234 232 230 230 231 231
306 304 299 292 287 285 286 286 286 286 285 286 286 286 286 285 285 285 285 287 289 291 294 295 297 301 306 313 317 317 318 320 323 325 324 323 322 320 320 322 324 325 314 292 269 256 251 248 246 243 241 240 241 242 243 244 246 247 246 246 245 243 242 242 240 240 241 242 244 246 246 244 241 240 239 239 239 238 237 236 235 233 232 232 231
308 306 304 300 292 287 286 286 286 286 285 285 285 285 285 285 284 283 282 283 285 288 292 293 293 296 302 310 315 315 317 319 321 323 324 324 325 321 314 312 314 317 315 307 293 273 259 253 251 249 248 245 244 243 244 244 245 246 247 247 245 243 243 242 242 242 241 241 241 242 244 243 240 238 237 237 238 237 237 238 238 236 235 235 234
310 307 307 306 301 293 289 286 286 286 285 285 284 284 283 282 282 281 279 280 282 285 290 292 289 291 297 305 312 314 316 317 316 317 321 325 329 324 311 305 306 309 312 311 304 294 279 263 254 250 249 249 247 245 244 244 244 244 244 245 244 243 242 241 241 242 242 241 240 239 241 241 239 237 236 235 234 234 234 236 237 237 237 237 236
313 309 308 308 306 301 295 289 287 287 285 285 284 283 281 279 279 278 277 277 278 282 287 290 288 286 291 299 307 312 315 314 311 313 320 328 332 332 325 313 304 302 305 308 306 303 297 283 266 254 250 249 248 247 246 245 244 243 242 242 241 241 242 240 239 240 242 244 242 239 239 240 239 237 236 234 232 231 231 233 235 236 237 238 236
315 312 309 307 306 306 302 295 290 288 286 285 284 282 280 278 277 276 276 274 274 278 283 287 287 284 285 294 302 309 312 308 306 310 318 328 334 335 337 333 317 304 300 302 305 305 302 297 283 265 253 248 246 246 247 246 245 244 243 242 241 240 241 241 240 239 241 244 243 240 238 238 238 237 236 234 232 231 231 232 233 234 236 237 237
316 314 312 308 306 306 305 302 295 290 288 286 285 282 280 278 277 275 274 272 272 274 277 283 285 282 280 287 295 303 307 302 302 308 311 326 340 333 324 322 319 312 304 300 299 302 303 301 294 280 263 252 247 245 246 246 246 245 244 243 241 239 240 241 241 241 241 242 242 240 238 238 237 236 234 232 232 232 231 232 233 233 235 236 237
317 316 315 311 308 306 304 304 300 294 291 289 287 284 280 278 277 275 273 271 270 271 273 277 282 281 277 278 286 294 299 299 300 303 302 320 336 317 302 300 302 303 306 302 296 296 299 300 297 288 276 264 254 248 246 245 245 245 244 244 243 241 240 239 240 241 241 242 242 240 239 238 237 235 231 230 230 229 228 228 230 232 235 236 236
318 317 316 314 312 308 304 302 302 300 296 293 289 286 281 279 277 276 274 272 270 270 270 273 277 279 276 272 276 283 290 294 297 297 292 292 295 290 289 292 293 292 293 292 289 289 291 292 294 290 285 280 270 259 252 248 246 246 245 245 245 245 243 241 241 241 241 242 243 242 239 237 235 233 230 229 230 228 225 224 226 229 233 234 233
318 317 317 316 315 312 307 303 301 301 300 297 292 288 283 279 278 278 276 273 271 269 269 270 273 277 276 271 269 274 282 288 293 294 289 281 280 287 293 297 296 292 287 283 281 282 281 281 282 281 280 282 280 274 266 256 250 246 245 245 245 245 245 244 243 242 241 241 242 242 241 238 236 235 231 228 229 228 224 224 224 226 228 231 231
317 317 317 317 317 316 312 306 302 300 300 300 295 290 285 280 278 278 277 276 274 271 269 269 271 273 275 273 269 268 274 282 287 291 291 285 284 290 295 295 296 295 291 288 288 288 287 284 280 275 270 270 272 275 273 266 258 251 245 244 243 243 242 242 243 242 240 240 240 240 240 239 236 234 229 225 226 226 224 223 224 225 227 230 231
317 317 317 318 319 318 315 310 305 300 300 301 298 292 286 281 278 279 279 279 276 273 270 270 270 272 272 272 270 268 269 274 279 286 290 286 284 289 293 291 292 294 293 293 294 295 295 291 285 280 276 273 271 272 271 268 265 260 254 247 243 243 242 240 240 240 238 239 238 238 238 236 233 229 225 223 222 220 217 218 219 224 229 231 230
315 316 317 319 318 318 316 313 309 303 300 300 299 293 287 282 279 280 281 281 277 272 270 269 270 272 272 271 270 268 268 270 274 280 284 281 282 289 294 289 286 287 289 290 290 292 295 291 282 278 277 274 270 270 271 271 270 268 264 256 251 249 247 243 240 239 237 237 236 237 237 235 230 226 223 222 220 215 211 210 212 218 227 231 229
314 315 316 318 317 317 317 315 312 307 301 299 299 295 289 283 279 279 281 280 275 270 269 269 269 272 273 272 270 269 269 271 272 274 276 277 281 288 292 288 283 283 285 286 286 287 288 286 280 274 273 270 265 262 264 268 273 275 271 261 255 252 249 245 242 239 238 237 235 233 233 231 227 224 223 223 221 214 208 207 209 214 221 226 227
313 314 315 316 317 317 317 317 315 311 305 300 298 297 292 284 277 277 278 277 274 271 271 272 272 273 273 272 270 269 270 271 271 271 273 276 281 285 288 287 284 282 283 285 284 282 280 279 278 275 272 270 266 261 257 257 263 268 268 263 255 245 245 245 242 240 238 236 235 233 231 229 226 223 223 225 225 220 211 206 208 214 218 221 221
311 312 313 315 316 317 317 317 317 314 308 302 298 297 295 287 277 273 274 273 272 270 271 273 273 272 271 271 269 269 269 270 271 271 272 275 280 284 286 285 284 283 285 285 281 277 275 274 273 272 272 271 269 265 259 252 250 254 259 260 255 246 245 243 237 236 236 234 234 234 233 231 229 227 225 226 227 226 219 212 210 213 216 218 217
310 311 312 313 315 316 317 317 318 316 311 304 299 298 297 290 279 272 269 269 268 267 268 270 271 271 270 270 270 269 269 270 270 270 271 274 278 281 284 284 283 283 285 285 280 275 271 268 266 265 268 269 269 266 262 257 251 249 252 255 248 241 242 243 237 234 237 237 236 234 233 233 232 231 229 227 226 227 226 221 216 215 216 218 219
308 309 310 312 313 315 316 317 318 317 313 307 301 299 298 294 284 273 267 266 265 265 266 268 271 273 271 270 272 273 271 271 272 272 273 274 277 279 281 283 284 283 283 283 280 275 269 263 260 258 260 262 264 264 263 262 259 255 254 253 248 239 239 242 239 236 237 241 242 240 238 237 236 234 233 231 227 225 225 225 222 219 218 220 221
305 306 308 310 311 313 315 316 317 317 315 310 304 301 298 296 290 278 269 266 265 265 267 268 271 272 271 271 272 273 273 273 272 273 274 274 276 278 280 282 283 282 282 282 280 277 271 263 256 253 253 255 258 261 262 263 263 260 256 254 251 247 244 245 245 241 239 240 242 242 242 243 242 239 236 233 228 223 220 220 221 220 220 220 221
302 304 306 308 310 313 314 315 316 316 315 313 308 303 299 297 294 286 275 269 267 268 268 269 271 272 273 272 269 269 271 272 272 273 275 275 275 277 278 280 280 280 281 282 279 275 271 264 256 252 251 251 251 254 258 259 260 260 258 254 252 250 248 247 247 248 248 248 248 247 245 245 245 243 239 234 229 223 219 216 216 217 219 220 220
299 302 304 305 309 311 312 313 315 315 315 315 313 307 299 296 297 295 288 278 274 273 272 273 274 276 276 274 270 268 270 271 272 274 274 275 275 276 277 277 279 281 282 280 275 272 269 264 258 253 251 250 248 250 254 257 258 258 257 254 251 249 248 247 247 247 250 255 259 257 251 246 242 240 238 235 230 225 221 218 216 215 217 219 220
296 299 300 303 307 309 311 312 313 314 315 316 315 310 301 297 297 299 298 292 285 281 279 279 280 279 277 274 270 269 270 271 273 275 275 275 276 276 276 278 280 283 282 278 275 272 269 265 259 255 253 250 247 248 251 255 258 259 257 255 252 249 248 247 246 246 247 251 257 258 255 251 246 239 235 232 229 226 223 221 219 217 218 220 221
293 295 297 301 304 307 309 311 312 313 314 315 315 312 307 302 299 298 300 300 295 290 286 284 282 280 277 274 271 269 269 271 273 275 276 278 278 276 277 279 280 279 277 276 275 273 269 265 260 258 259 256 252 251 251 255 259 261 260 256 252 249 248 246 245 244 243 244 249 255 257 255 250 241 233 226 223 222 221 220 220 220 220 222 223
290 291 294 298 300 304 307 308 310 312 312 313 314 313 310 306 301 298 299 301 300 295 290 286 285 284 281 278 276 274 272 270 271 273 276 280 281 280 281 280 277 272 269 270 271 270 267 265 261 260 261 260 257 254 253 255 258 260 260 257 252 248 246 245 245 243 240 238 242 248 250 249 243 236 230 223 217 214 214 216 218 220 222 224 224
286 287 290 293 296 301 304 306 308 310 310 311 311 311 310 308 304 301 300 301 302 300 295 291 291 291 291 287 283 283 281 278 277 279 281 283 285 285 286 283 277 274 270 268 265 262 260 258 256 255 256 256 255 254 253 254 256 256 256 254 250 247 244 243 244 242 237 235 237 239 239 240 235 226 220 217 212 209 209 213 216 220 224 226 226
284 285 286 288 293 298 301 304 307 307 308 309 310 309 310 309 307 304 302 302 304 304 302 299 297 297 298 297 292 290 290 291 293 293 292 291 291 291 290 285 281 278 275 269 262 257 254 252 251 250 250 250 251 251 251 252 253 254 254 251 247 245 243 241 242 240 234 231 233 232 227 226 228 222 213 209 209 209 211 215 218 221 225 227 228
282 283 283 284 289 293 298 301 304 305 307 308 308 309 308 308 308 307 306 305 306 307 307 306 302 300 301 301 299 298 299 304 307 306 302 300 298 297 293 287 281 276 269 264 259 255 253 251 249 249 249 249 249 249 249 250 250 250 251 250 246 245 243 240 239 239 234 229 229 228 222 214 214 216 214 213 214 215 218 221 223 225 227 229 230
280 280 279 281 284 288 293 298 299 302 304 305 306 308 307 306 307 308 309 310 309 309 310 308 305 304 303 303 304 305 308 313 316 313 308 305 302 300 294 288 283 274 265 260 258 256 254 251 250 250 251 250 249 248 248 249 250 250 248 246 244 243 243 241 238 237 235 232 229 227 222 213 205 202 207 214 218 220 223 225 227 230 231 230 231
278 277 276 277 279 283 289 292 294 298 300 301 303 305 304 304 304 304 306 308 309 310 312 310 307 305 304 303 306 308 311 316 319 317 313 307 302 299 294 290 286 282 274 270 267 263 259 255 251 251 252 252 252 252 251 250 250 250 249 246 243 241 241 241 240 238 236 234 232 229 224 216 207 202 205 213 220 221 221 223 226 230 233 232 231
276 274 274 274 275 278 283 287 290 294 296 297 299 300 300 302 302 301 301 301 302 305 308 309 309 306 301 299 301 303 307 313 317 321 321 315 309 305 299 293 289 285 281 278 273 267 263 259 256 254 254 255 258 259 258 256 252 250 250 249 246 243 241 242 243 241 238 236 234 232 228 223 216 211 210 213 218 221 222 222 224 228 231 231 231
274 271 271 270 270 275 279 283 287 291 293 294 295 296 298 299 300 301 300 296 295 297 300 303 306 305 300 295 291 292 298 306 314 324 326 318 312 309 305 302 299 294 290 285 278 272 268 265 264 263 261 260 262 264 265 266 262 256 252 249 248 246 243 242 243 243 241 238 237 236 234 229 225 221 218 216 217 219 220 221 223 226 228 227 228
273 270 268 266 267 271 273 278 284 286 289 291 292 293 296 298 298 300 300 296 294 293 293 297 301 302 302 300 295 294 299 304 310 318 317 306 302 302 301 302 301 297 294 290 282 276 273 269 269 269 267 265 265 265 267 269 269 265 259 252 248 246 245 244 243 243 242 241 239 239 239 237 232 229 226 224 223 223 222 221 222 226 228 227 227
271 268 265 264 265 266 268 273 278 281 285 288 290 292 295 297 298 300 300 298 296 292 290 292 295 298 302 303 302 301 302 301 304 308 308 308 311 311 308 304 298 294 293 292 288 285 280 276 274 273 270 268 266 265 267 270 271 269 265 258 252 248 246 245 245 243 242 242 241 240 240 241 240 237 233 231 229 228 227 225 225 226 229 229 227
269 267 265 263 262 263 265 269 272 277 282 285 286 290 293 294 296 299 299 298 297 294 291 289 289 291 295 298 299 300 299 300 303 307 308 310 312 309 306 302 297 293 291 289 288 289 286 282 280 276 272 269 266 264 267 269 270 269 266 261 256 252 248 247 246 244 243 243 242 241 241 241 242 242 241 237 234 232 231 230 228 228 229 229 227
268 266 264 261 260 260 262 264 268 273 278 281 284 287 289 291 294 296 297 298 298 296 294 291 287 286 288 289 292 294 294 295 298 300 300 302 302 299 298 297 294 293 292 289 288 289 287 287 286 283 278 274 269 266 266 268 269 270 266 261 259 256 252 249 246 244 242 241 241 241 242 242 242 243 243 242 240 237 234 232 230 229 228 227 226
268 266 262 259 258 258 259 260 264 269 273 277 281 283 284 288 291 293 296 298 298 298 298 296 292 287 284 282 283 284 285 285 287 287 288 291 291 291 292 291 289 290 291 290 290 289 288 289 290 288 286 281 273 268 267 268 269 270 266 262 260 259 257 254 250 245 243 241 239 239 240 241 242 242 242 242 242 241 237 233 231 228 226 224 223
267 265 261 257 255 255 255 257 261 264 268 273 277 279 281 284 286 289 294 297 298 299 301 301 300 296 290 284 281 279 278 280 281 282 284 287 287 287 288 288 288 288 288 288 290 290 289 290 291 290 290 287 280 275 272 271 273 272 267 263 261 259 258 257 254 249 246 243 241 241 240 239 240 239 239 240 241 241 238 233 229 227 225 223 222
265 262 259 256 253 252 253 255 256 258 263 267 271 274 277 279 282 286 291 294 297 300 302 303 305 304 301 297 291 286 282 281 281 282 284 286 288 290 291 291 291 290 288 288 288 287 286 287 286 286 288 287 285 281 277 274 276 276 271 266 262 260 259 258 255 253 251 248 246 244 243 241 240 239 238 238 239 240 239 234 229 226 226 225 224
262 260 257 254 250 249 250 251 252 254 258 261 265 269 272 275 278 282 286 290 295 298 301 305 307 307 306 305 303 299 295 291 287 285 285 286 287 290 292 292 293 293 292 292 291 289 288 287 285 285 285 284 283 282 279 276 276 276 274 271 266 262 261 260 258 257 257 256 255 253 249 245 242 239 238 237 237 238 238 235 230 226 225 226 227
258 257 255 251 248 248 249 249 250 252 253 255 260 265 268 270 274 277 281 286 291 294 299 303 306 308 308 307 307 306 306 305 301 298 294 292 290 290 290 291 292 292 293 294 293 293 292 291 289 287 286 284 283 282 280 278 277 275 274 273 271 267 265 264 260 259 259 258 259 260 256 251 246 242 238 237 236 236 236 236 232 227 225 225 227
256 255 253 250 247 247 248 248 249 250 251 252 256 260 263 267 270 272 276 281 284 289 294 299 302 305 307 306 307 308 308 309 310 309 307 304 300 296 293 291 291 290 291 292 293 293 293 292 291 290 288 286 285 283 280 279 278 275 273 273 272 270 269 267 263 260 258 257 258 259 259 256 252 245 240 237 236 235 234 235 234 230 227 226 228
254 253 251 249 247 246 246 247 248 249 249 250 253 256 260 263 266 268 271 274 278 282 287 291 296 301 302 303 305 307 307 309 311 313 313 314 313 310 306 303 298 295 292 290 290 291 291 291 291 290 288 286 285 283 281 279 277 274 272 271 269 269 269 269 267 264 259 255 254 254 255 255 254 250 244 239 236 235 235 234 233 232 230 228 228
252 251 250 247 245 244 244 245 247 248 249 249 250 253 256 259 262 264 267 269 271 275 279 283 288 292 295 298 301 302 304 308 310 311 314 318 318 317 316 314 310 306 302 297 294 292 291 290 291 291 290 288 286 283 281 279 277 274 272 269 267 266 266 266 266 265 263 258 254 251 250 250 249 249 247 243 239 236 236 236 236 235 234 232 231
249 249 248 246 244 243 243 244 246 247 248 248 249 251 254 257 259 261 262 264 267 269 271 274 278 283 287 291 295 297 299 303 305 308 312 315 316 318 318 317 315 314 312 308 305 301 297 293 291 290 289 288 287 285 283 280 277 275 273 270 267 265 264 263 263 263 263 261 258 254 251 249 246 244 244 243 241 238 236 236 237 237 236 236 235
246 247 247 246 245 244 243 243 245 246 247 248 249 250 253 255 257 258 260 261 263 265 267 269 271 274 278 282 286 289 292 295 298 302 306 308 310 313 314 314 316 316 314 313 312 310 306 302 298 293 290 288 286 285 285 283 280 278 275 271 269 266 263 261 261 261 260 260 260 256 253 251 248 244 242 240 239 237 236 234 234 235 235 235 235
Height
2939 2938 2936 2934 2932 2930 2928 2927 2925 2923 2922 2920 2918 2917 2915 2913 2911 2909 2907 2905 2903 2900 2898 2896 2894 2892 2889 2887 2884 2881 2878 2875 2872 2869 2865 2861 2856 2852 2850 2847 2846 2847 2849 2851 2854 2857 2860 2864 2867 2870 2873 2876 2879 2882 2885 2888 2890 2892 2894 2897 2899 2902 2904 2905 2907 2911 2916 2920 2924 2929 2932 2935 2938 2942 2945 2948 2951 2954 2957 2960 2964 2968 2972 2975 2979
2935 2933 2932 2930 2928 2926 2924 2923 2921 2919 2918 2916 2915 2913 2911 2909 2907 2906 2904 2902 2899 2897 2895 2893 2890 2888 2886 2884 2881 2879 2876 2873 2870 2867 2864 2860 2855 2852 2849 2846 2845 2845 2846 2848 2850 2853 2856 2859 2863 2866 2868 2871 2874 2877 2880 2882 2885 2887 2889 2891 2894 2896 2898 2900 2901 2904 2906 2911 2916 2920 2923 2927 2930 2934 2937 2939 2943 2946 2949 2953 2957 2961 2964 2968 2972
2930 2929 2927 2925 2924 2922 2921 2919 2917 2916 2914 2912 2911 2909 2908 2906 2904 2902 2900 2898 2896 2894 2892 2890 2887 2885 2883 2881 2878 2876 2873 2870 2868 2865 2862 2859 2855 2852 2849 2846 2845 2844 2845 2846 2848 2850 2852 2855 2859 2862 2864 2866 2869 2872 2875 2877 2879 2882 2884 2886 2888 2891 2893 2894 2896 2897 2899 2903 2908 2912 2915 2919 2923 2927 2930 2931 2935 2938 2941 2946 2949 2952 2957 2961 2964
2925 2924 2922 2921 2919 2918 2916 2915 2913 2911 2910 2908 2906 2905 2904 2902 2900 2899 2897 2895 2893 2891 2889 2887 2885 2882 2880 2878 2875 2873 2871 2868 2865 2863 2860 2858 2855 2851 2849 2846 2845 2844 2844 2845 2846 2848 2850 2852 2855 2858 2861 2862 2865 2868 2870 2872 2875 2877 2879 2881 2883 2886 2888 2889 2890 2892 2893 2895 2900 2904 2908 2911 2915 2920 2923 2925 2927 2930 2934 2938 2942 2945 2949 2953 2957
2921 2919 2918 2916 2915 2914 2912 2911 2909 2907 2906 2904 2902 2901 2900 2898 2897 2895 2894 2892 2890 2888 2886 2884 2882 2880 2877 2875 2872 2870 2868 2866 2864 2861 2859 2857 2854 2851 2849 2847 2845 2844 2844 2844 2845 2846 2847 2850 2852 2855 2857 2858 2861 2863 2866 2868 2870 2872 2874 2876 2878 2880 2882 2884 2885 2886 2887 2888 2892 2897 2900 2904 2907 2912 2916 2918 2921 2923 2926 2930 2933 2937 2941 2945 2949
2916 2914 2913 2911 2910 2909 2907 2906 2904 2903 2901 2900 2898 2896 2895 2894 2893 2892 2890 2888 2887 2885 2883 2881 2879 2877 2875 2872 2870 2868 2866 2864 2862 2860 2857 2855 2853 2851 2849 2847 2846 2845 2844 2844 2845 2845 2846 2847 2849 2851 2853 2854 2857 2859 2861 2863 2865 2867 2869 2871 2873 2875 2877 2879 2880 2881 2882 2883 2885 2888 2892 2896 2900 2904 2908 2911 2914 2917 2920 2923 2926 2929 2933 2937 2941
2913 2910 2908 2907 2905 2904 2902 2901 2900 2898 2897 2895 2894 2892 2891 2890 2889 2887 2886 2885 2883 2882 2880 2878 2876 2874 2872 2870 2867 2865 2864 2862 2860 2858 2856 2854 2852 2850 2848 2847 2845 2844 2844 2843 2844 2844 2845 2845 2846 2848 2849 2851 2853 2855 2856 2858 2859 2861 2863 2865 2867 2870 2871 2873 2875 2876 2876 2877 2879 2880 2883 2888 2892 2896 2901 2904 2906 2909 2913 2916 2919 2923 2926 2929 2933
2909 2906 2904 2902 2900 2899 2898 2896 2895 2893 2892 2891 2889 2888 2887 2885 2884 2883 2882 2881 2880 2878 2877 2875 2873 2871 2870 2868 2865 2863 2861 2859 2858 2856 2854 2852 2850 2849 2847 2846 2845 2844 2843 2842 2842 2842 2842 2843 2844 2845 2846 2847 2849 2850 2852 2853 2854 2856 2858 2860 2862 2864 2866 2867 2868 2869 2870 2871 2872 2874 2876 2880 2884 2888 2893 2897 2899 2903 2908 2910 2912 2916 2919 2921 2925
2906 2903 2900 2897 2895 2894 2893 2892 2890 2889 2887 2886 2885 2884 2883 2881 2880 2879 2878 2877 2876 2875 2873 2872 2870 2869 2867 2865 2863 2861 2859 2857 2855 2854 2853 2851 2849 2847 2846 2844 2843 2843 2842 2841 2840 2840 2840 2840 2841 2841 2842 2843 2845 2846 2847 2849 2850 2852 2853 2855 2856 2858 2860 2860 2861 2862 2864 2865 2866 2868 2870 2872 2876 2881 2885 2889 2893 2898 2903 2904 2904 2908 2912 2914 2918
2902 2899 2896 2893 2891 2889 2888 2887 2886 2884 2882 2881 2880 2879 2878 2877 2876 2875 2874 2873 2872 2871 2870 2869 2867 2866 2864 2862 2861 2859 2856 2855 2853 2852 2851 2850 2849 2847 2844 2843 2842 2841 2841 2840 2839 2838 2838 2837 2837 2838 2838 2840 2841 2842 2843 2844 2845 2847 2849 2850 2851 2852 2853 2854 2856 2857 2859 2859 2861 2863 2864 2866 2870 2876 2879 2883 2888 2893 2895 2895 2897 2902 2906 2907 2910
2899 2896 2892 2890 2887 2885 2884 2882 2881 2880 2878 2876 2876 2875 2874 2872 2872 2871 2870 2869 2868 2867 2866 2865 2864 2863 2862 2860 2858 2856 2854 2853 2851 2850 2849 2848 2847 2845 2844 2842 2841 2840 2839 2839 2838 2837 2836 2835 2835 2835 2835 2836 2837 2838 2839 2840 2841 2843 2844 2845 2847 2848 2848 2849 2851 2853 2854 2855 2857 2858 2859 2861 2866 2871 2874 2878 2882 2885 2887 2889 2892 2896 2897 2899 2903
2895 2892 2889 2886 2884 2881 2880 2878 2877 2875 2874 2872 2871 2870 2869 2868 2867 2867 2866 2865 2864 2864 2863 2862 2861 2860 2859 2858 2856 2854 2852 2850 2849 2848 2847 2845 2844 2842 2841 2841 2840 2839 2838 2837 2836 2835 2834 2834 2833 2832 2832 2832 2833 2834 2835 2836 2837 2838 2840 2841 2842 2843 2844 2846 2847 2849 2850 2851 2853 2854 2856 2858 2862 2865 2869 2873 2876 2879 2881 2884 2886 2889 2890 2893 2897
2892 2889 2886 2883 2881 2878 2876 2874 2873 2871 2869 2868 2867 2865 2864 2863 2863 2862 2862 2861 2860 2860 2859 2859 2857 2857 2856 2855 2854 2852 2850 2848 2847 2846 2844 2843 2842 2841 2839 2839 2838 2837 2836 2835 2834 2833 2833 2832 2831 2830 2830 2830 2830 2831 2831 2832 2833 2834 2835 2836 2838 2839 2841 2842 2843 2845 2846 2848 2848 2850 2853 2855 2857 2861 2865 2869 2871 2873 2876 2878 2881 2883 2885 2887 2891
2888 2885 2882 2880 2877 2875 2873 2871 2869 2867 2865 2864 2862 2861 2860 2859 2858 2858 2857 2857 2856 2856 2856 2855 2854 2853 2853 2852 2851 2850 2848 2847 2845 2844 2842 2841 2840 2839 2838 2836 2836 2835 2834 2833 2832 2832 2831 2830 2830 2829 2828 2827 2827 2827 2828 2829 2829 2830 2831 2832 2833 2835 2836 2838 2839 2841 2842 2843 2844 2846 2849 2851 2853 2857 2861 2863 2865 2867 2870 2873 2876 2878 2880 2883 2887
2885 2882 2879 2876 2874 2871 2869 2867 2865 2863 2861 2860 2858 2857 2856 2855 2854 2853 2853 2853 2852 2852 2852 2852 2851 2850 2849 2849 2848 2847 2846 2845 2843 2842 2840 2839 2838 2836 2835 2834 2834 2833 2832 2831 2831 2830 2829 2828 2828 2827 2826 2826 2825 2825 2825 2825 2826 2827 2828 2828 2829 2831 2832 2834 2836 2837 2838 2839 2840 2842 2845 2847 2849 2853 2856 2859 2861 2863 2866 2868 2871 2873 2875 2878 2881
2881 2878 2875 2873 2870 2868 2865 2863 2861 2859 2858 2856 2854 2853 2852 2851 2850 2849 2849 2848 2848 2847 2848 2848 2847 2847 2846 2846 2846 2844 2843 2842 2841 2839 2838 2837 2835 2833 2832 2832 2831 2831 2830 2829 2828 2828 2827 2826 2826 2825 2825 2824 2823 2823 2823 2823 2823 2823 2824 2825 2826 2827 2828 2830 2831 2832 2834 2835 2836 2838 2841 2843 2846 2849 2852 2856 2858 2860 2863 2864 2866 2869 2871 2873 2875
2877 2874 2872 2869 2866 2864 2862 2860 2857 2855 2854 2852 2850 2849 2848 2847 2846 2845 2845 2844 2843 2843 2843 2844 2844 2843 2842 2842 2842 2842 2840 2839 2838 2837 2835 2834 2832 2831 2831 2830 2828 2828 2828 2827 2826 2826 2825 2825 2824 2823 2823 2822 2822 2821 2821 2820 2820 2821 2821 2821 2822 2822 2824 2825 2826 2827 2829 2831 2832 2834 2836 2839 2842 2845 2849 2851 2854 2856 2858 2860 2863 2866 2868 2869 2871
2872 2870 2868 2865 2863 2860 2858 2856 2854 2851 2850 2848 2847 2845 2844 2843 2842 2841 2841 2840 2839 2839 2839 2839 2839 2839 2839 2838 2838 2838 2838 2836 2835 2834 2833 2831 2829 2828 2828 2827 2826 2825 2825 2824 2824 2824 2823 2823 2822 2821 2821 2821 2820 2820 2819 2818 2818 2819 2819 2819 2819 2820 2821 2821 2822 2823 2825 2826 2828 2830 2832 2834 2837 2840 2843 2846 2849 2852 2854 2856 2860 2863 2865 2866 2868
2868 2866 2864 2861 2859 2857 2855 2852 2850 2848 2846 2844 2843 2841 2840 2839 2838 2838 2837 2836 2836 2835 2835 2835 2836 2835 2835 2834 2834 2834 2834 2833 2832 2831 2830 2828 2826 2825 2825 2825 2824 2822 2822 2821 2821 2821 2821 2821 2820 2819 2819 2820 2819 2818 2818 2817 2816 2817 2817 2817 2818 2819 2819 2819 2819 2820 2821 2822 2824 2826 2828 2831 2834 2836 2838 2841 2844 2847 2849 2852 2856 2859 2860 2862 2865
2864 2862 2860 2858 2856 2854 2851 2849 2846 2844 2842 2840 2839 2838 2837 2836 2835 2834 2834 2833 2832 2832 2832 2832 2832 2832 2831 2830 2830 2829 2829 2829 2829 2828 2826 2825 2823 2822 2822 2821 2821 2819 2819 2818 2818 2818 2818 2818 2818 2817 2817 2817 2817 2817 2816 2816 2815 2815 2815 2815 2816 2817 2817 2816 2816 2817 2818 2819 2821 2822 2824 2827 2830 2832 2834 2836 2839 2842 2845 2848 2851 2854 2857 2859 2861
2860 2858 2855 2854 2852 2850 2848 2846 2843 2841 2839 2837 2835 2834 2833 2832 2831 2831 2830 2830 2829 2828 2828 2828 2829 2829 2828 2827 2826 2825 2825 2825 2825 2824 2823 2822 2820 2819 2818 2818 2817 2816 2815 2815 2815 2815 2815 2815 2815 2814 2814 2814 2814 2814 2814 2814 2814 2813 2812 2812 2814 2815 2814 2814 2814 2815 2815 2816 2817 2819 2821 2823 2825 2827 2830 2832 2834 2837 2841 2843 2846 2850 2852 2855 2858
2856 2854 2852 2850 2848 2846 2844 2842 2840 2838 2835 2833 2832 2830 2829 2828 2828 2827 2827 2826 2826 2825 2825 2825 2825 2825 2824 2823 2823 2822 2821 2821 2820 2820 2819 2818 2817 2816 2814 2814 2813 2812 2811 2811 2812 2812 2812 2811 2811 2811 2810 2810 2811 2811 2811 2811 2811 2810 2810 2810 2812 2812 2812 2812 2812 2812 2812 2813 2814 2816 2817 2819 2821 2823 2826 2828 2831 2834 2837 2839 2842 2845 2848 2851 2854
2852 2851 2848 2846 2844 2843 2841 2839 2837 2834 2832 2830 2828 2827 2825 2825 2824 2824 2823 2823 2823 2822 2822 2822 2822 2822 2821 2820 2819 2818 2817 2817 2816 2816 2815 2814 2813 2812 2811 2810 2809 2808 2807 2807 2808 2808 2808 2808 2808 2807 2807 2807 2807 2807 2807 2807 2807 2807 2807 2808 2809 2810 2810 2810 2810 2810 2810 2811 2811 2812 2814 2816 2818 2820 2822 2824 2827 2830 2833 2836 2838 2841 2844 2847 2850
2849 2847 2845 2842 2840 2839 2837 2836 2834 2832 2829 2827 2825 2824 2822 2821 2820 2820 2820 2819 2819 2819 2819 2818 2818 2818 2818 2817 2815 2814 2813 2813 2812 2811 2811 2811 2810 2808 2807 2806 2805 2804 2803 2803 2803 2803 2804 2804 2804 2804 2804 2803 2803 2803 2804 2804 2804 2804 2805 2805 2805 2806 2807 2807 2807 2808 2808 2808 2809 2809 2811 2813 2814 2816 2819 2821 2824 2827 2830 2832 2835 2838 2840 2843 2846
2845 2843 2841 2839 2837 2835 2834 2832 2831 2829 2827 2824 2822 2821 2819 2818 2817 2816 2816 2816 2815 2815 2815 2815 2814 2814 2814 2814 2812 2810 2809 2808 2808 2807 2807 2807 2806 2804 2803 2802 2801 2800 2799 2799 2799 2799 2799 2799 2800 2800 2800 2800 2800 2800 2800 2801 2801 2801 2802 2802 2802 2803 2803 2803 2804 2804 2805 2805 2806 2807 2808 2810 2811 2813 2815 2817 2820 2822 2825 2827 2831 2834 2837 2839 2842
2840 2839 2837 2835 2833 2831 2830 2829 2827 2826 2824 2822 2820 2818 2816 2815 2814 2813 2813 2812 2812 2811 2811 2811 2811 2811 2810 2810 2809 2807 2805 2805 2804 2803 2803 2802 2802 2801 2799 2798 2797 2796 2795 2795 2795 2795 2794 2795 2795 2796 2797 2797 2797 2797 2797 2797 2798 2798 2798 2799 2799 2799 2799 2800 2801 2801 2801 2802 2803 2805 2806 2807 2808 2809 2811 2812 2814 2817 2819 2822 2826 2829 2832 2835 2837
2836 2835 2833 2832 2830 2828 2826 2825 2824 2823 2821 2819 2818 2816 2814 2812 2811 2810 2809 2809 2808 2808 2807 2807 2806 2807 2807 2806 2805 2804 2802 2801 2800 2799 2799 2798 2798 2797 2795 2794 2793 2792 2792 2791 2791 2790 2790 2791 2791 2792 2793 2793 2794 2794 2794 2794 2795 2795 2795 2795 2795 2796 2796 2797 2797 2798 2798 2799 2800 2802 2803 2804 2804 2805 2806 2807 2809 2812 2815 2818 2821 2824 2827 2830 2832
2832 2831 2830 2828 2827 2825 2823 2822 2820 2819 2818 2816 2815 2813 2812 2810 2809 2807 2806 2806 2805 2804 2804 2803 2803 2803 2802 2802 2801 2800 2799 2798 2796 2796 2795 2794 2794 2793 2791 2790 2789 2789 2788 2787 2787 2787 2787 2787 2788 2788 2789 2789 2790 2791 2791 2791 2792 2792 2792 2792 2792 2792 2793 2793 2794 2795 2796 2797 2798 2798 2799 2799 2800 2800 2801 2803 2805 2808 2811 2814 2817 2820 2823 2826 2828
2828 2827 2826 2825 2823 2822 2820 2819 2817 2815 2814 2813 2812 2811 2809 2808 2806 2805 2803 2803 2802 2802 2801 2800 2799 2799 2799 2798 2797 2797 2796 2795 2793 2792 2791 2790 2789 2789 2788 2787 2786 2785 2784 2784 2783 2783 2784 2784 2784 2785 2785 2786 2786 2787 2788 2788 2788 2789 2789 2789 2789 2789 2789 2790 2790 2791 2793 2794 2795 2795 2796 2796 2796 2797 2797 2799 2801 2804 2807 2810 2813 2816 2819 2822 2824
2824 2823 2822 2821 2820 2819 2817 2816 2814 2813 2811 2810 2809 2808 2807 2805 2804 2802 2801 2800 2800 2799 2798 2798 2796 2796 2795 2795 2794 2793 2793 2792 2791 2789 2788 2786 2785 2784 2784 2784 2783 2782 2782 2781 2781 2781 2781 2781 2781 2782 2782 2782 2783 2784 2784 2784 2785 2785 2786 2786 2786 2786 2786 2786 2787 2788 2789 2791 2792 2793 2793 2793 2793 2793 2794 2796 2798 2800 2803 2806 2809 2812 2815 2817 2820
2820 2819 2818 2818 2816 2815 2814 2813 2812 2810 2809 2807 2805 2805 2804 2803 2801 2800 2798 2798 2797 2796 2796 2795 2794 2793 2792 2791 2791 2790 2789 2789 2788 2786 2785 2783 2782 2781 2781 2780 2780 2779 2779 2779 2779 2779 2779 2779 2779 2779 2780 2780 2780 2780 2781 2781 2781 2782 2782 2782 2782 2782 2783 2783 2784 2784 2786 2788 2789 2790 2790 2790 2790 2791 2792 2794 2796 2799 2801 2804 2806 2809 2811 2814 2816
2816 2815 2815 2814 2813 2812 2811 2810 2809 2808 2806 2804 2802 2801 2800 2800 2799 2798 2796 2795 2794 2794 2793 2792 2791 2790 2789 2788 2788 2787 2786 2786 2785 2783 2781 2780 2778 2778 2778 2777 2777 2776 2776 2776 2776 2777 2777 2777 2777 2777 2777 2777 2778 2778 2778 2778 2778 2778 2778 2778 2779 2779 2779 2780 2780 2781 2783 2784 2786 2787 2787 2788 2789 2789 2791 2792 2795 2797 2799 2802 2804 2806 2809 2811 2813
2812 2812 2811 2810 2810 2809 2808 2807 2806 2805 2804 2802 2800 2798 2797 2796 2795 2795 2794 2793 2792 2791 2791 2790 2789 2787 2786 2785 2785 2784 2784 2783 2781 2780 2778 2777 2776 2775 2775 2775 2774 2774 2774 2774 2774 2775 2775 2775 2775 2775 2775 2775 2775 2775 2775 2775 2775 2774 2775 2775 2775 2776 2776 2777 2778 2778 2780 2781 2783 2784 2785 2786 2787 2788 2789 2791 2793 2795 2797 2800 2802 2804 2806 2808 2810
2809 2808 2807 2807 2806 2805 2805 2804 2803 2803 2802 2800 2798 2797 2795 2793 2791 2791 2791 2790 2789 2789 2788 2787 2786 2785 2784 2783 2782 2781 2781 2780 2779 2777 2776 2775 2774 2774 2773 2773 2772 2772 2772 2772 2772 2772 2773 2773 2773 2773 2773 2773 2773 2773 2772 2772 2772 2772 2772 2772 2772 2773 2773 2774 2775 2776 2777 2778 2780 2781 2782 2783 2784 2786 2788 2789 2791 2793 2795 2797 2799 2801 2802 2804 2806
2805 2804 2804 2804 2803 2802 2802 2801 2801 2800 2799 2798 2797 2795 2793 2791 2789 2788 2787 2787 2786 2786 2786 2785 2784 2783 2782 2781 2780 2779 2778 2778 2777 2776 2774 2773 2773 2772 2772 2771 2771 2771 2771 2771 2771 2771 2771 2771 2771 2771 2771 2771 2770 2770 2770 2770 2770 2769 2769 2769 2769 2770 2770 2771 2772 2773 2774 2775 2776 2778 2780 2781 2782 2783 2785 2787 2789 2790 2792 2794 2796 2797 2799 2800 2802
2801 2801 2800 2800 2799 2799 2799 2798 2798 2797 2797 2796 2795 2794 2792 2790 2789 2787 2785 2784 2784 2783 2783 2782 2782 2781 2780 2779 2778 2777 2776 2776 2775 2774 2773 2772 2771 2771 2770 2770 2770 2769 2769 2769 2769 2769 2769 2769 2769 2769 2768 2768 2768 2768 2768 2768 2767 2767 2767 2767 2767 2767 2767 2768 2769 2770 2771 2772 2773 2775 2776 2778 2779 2780 2781 2783 2785 2787 2788 2790 2792 2794 2796 2797 2799
2797 2797 2796 2796 2796 2796 2795 2795 2794 2794 2794 2793 2793 2792 2790 2789 2787 2785 2784 2783 2782 2781 2780 2780 2780 2779 2778 2777 2776 2776 2775 2774 2774 2772 2771 2771 2770 2769 2769 2768 2768 2768 2768 2768 2768 2768 2767 2767 2767 2767 2767 2766 2766 2766 2766 2765 2765 2765 2765 2764 2765 2765 2765 2766 2766 2767 2768 2769 2770 2771 2773 2774 2776 2777 2778 2779 2781 2783 2784 2786 2788 2790 2792 2794 2795
2793 2792 2793 2793 2793 2792 2792 2792 2791 2791 2791 2791 2790 2789 2788 2787 2785 2784 2782 2781 2780 2780 2779 2778 2777 2777 2776 2775 2774 2773 2773 2772 2772 2771 2771 2770 2769 2768 2768 2767 2767 2766 2766 2766 2766 2766 2765 2765 2765 2765 2765 2764 2764 2764 2763 2763 2763 2763 2762 2762 2762 2763 2763 2763 2764 2764 2765 2766 2767 2768 2769 2770 2772 2773 2775 2776 2778 2779 2781 2782 2784 2786 2788 2790 2791
2788 2788 2788 2789 2789 2789 2789 2789 2788 2788 2788 2788 2787 2786 2785 2784 2783 2782 2781 2780 2779 2778 2777 2776 2775 2775 2774 2773 2772 2771 2770 2770 2770 2770 2769 2769 2768 2767 2766 2766 2765 2765 2765 2764 2764 2764 2763 2763 2763 2763 2762 2762 2762 2761 2761 2761 2760 2760 2760 2760 2760 2760 2761 2761 2761 2761 2762 2763 2764 2765 2766 2767 2768 2769 2771 2772 2774 2775 2777 2778 2780 2782 2784 2786 2787
2784 2784 2785 2785 2786 2786 2786 2785 2785 2785 2785 2785 2784 2784 2783 2782 2781 2780 2779 2778 2777 2776 2775 2774 2773 2773 2772 2771 2770 2769 2768 2768 2767 2767 2767 2766 2766 2765 2765 2764 2764 2763 2763 2762 2762 2762 2761 2761 2761 2760 2760 2760 2759 2759 2759 2758 2758 2758 2758 2758 2758 2758 2758 2758 2759 2759 2759 2760 2761 2761 2762 2763 2764 2765 2766 2768 2769 2771 2772 2774 2776 2779 2780 2782 2784
2779 2780 2781 2781 2782 2782 2782 2782 2782 2782 2782 2782 2781 2781 2780 2780 2779 2778 2777 2776 2775 2774 2773 2772 2771 2771 2770 2770 2769 2768 2767 2766 2765 2765 2765 2764 2764 2764 2763 2762 2762 2761 2761 2760 2760 2760 2759 2759 2758 2758 2758 2757 2757 2757 2756 2756 2756 2756 2755 2755 2755 2756 2756 2756 2756 2757 2757 2757 2758 2758 2759 2760 2760 2761 2762 2763 2764 2766 2767 2769 2772 2774 2776 2779 2781
2776 2776 2777 2778 2778 2778 2778 2778 2778 2778 2778 2778 2778 2778 2778 2777 2776 2776 2775 2774 2773 2772 2771 2770 2769 2769 2768 2768 2767 2766 2765 2764 2764 2763 2763 2763 2762 2762 2761 2761 2760 2760 2759 2758 2758 2757 2757 2757 2756 2756 2755 2755 2755 2754 2754 2754 2754 2753 2753 2753 2753 2753 2753 2753 2754 2754 2754 2755 2755 2755 2756 2757 2757 2758 2759 2759 2760 2761 2762 2764 2767 2769 2772 2774 2776
2772 2772 2773 2774 2774 2775 2775 2775 2775 2775 2775 2775 2776 2776 2775 2775 2774 2773 2772 2772 2771 2770 2769 2768 2767 2767 2766 2766 2765 2765 2764 2763 2762 2761 2761 2761 2761 2760 2760 2759 2758 2758 2757 2757 2756 2756 2755 2754 2754 2754 2753 2753 2753 2752 2752 2752 2751 2751 2751 2751 2751 2751 2751 2751 2751 2751 2751 2752 2752 2753 2753 2754 2754 2755 2755 2756 2757 2758 2759 2760 2762 2765 2767 2770 2772
2768 2768 2769 2770 2771 2771 2772 2772 2772 2772 2772 2772 2773 2773 2773 2772 2772 2771 2770 2770 2769 2768 2767 2766 2765 2765 2764 2764 2763 2763 2762 2761 2760 2759 2759 2758 2758 2758 2758 2757 2756 2756 2755 2755 2754 2754 2753 2753 2752 2752 2751 2751 2751 2750 2750 2750 2749 2749 2749 2749 2749 2749 2749 2749 2749 2749 2749 2749 2749 2750 2750 2750 2751 2752 2752 2753 2754 2754 2755 2757 2758 2761 2763 2765 2767
2764 2765 2765 2766 2767 2768 2768 2769 2769 2769 2769 2769 2770 2770 2770 2770 2769 2768 2768 2767 2767 2766 2765 2764 2763 2763 2762 2762 2761 2761 2760 2759 2758 2757 2756 2756 2756 2756 2755 2755 2754 2754 2753 2753 2752 2752 2751 2751 2750 2750 2749 2749 2749 2748 2748 2748 2748 2747 2747 2747 2747 2747 2747 2746 2746 2746 2746 2747 2747 2747 2747 2747 2748 2748 2749 2750 2751 2751 2752 2753 2755 2757 2759 2761 2763
2759 2760 2762 2762 2763 2764 2765 2766 2766 2766 2766 2767 2767 2767 2767 2767 2767 2766 2765 2765 2764 2764 2763 2762 2762 2761 2761 2760 2760 2759 2758 2757 2756 2755 2754 2754 2753 2753 2753 2753 2752 2752 2751 2751 2750 2750 2749 2749 2748 2748 2747 2747 2747 2746 2746 2746 2746 2745 2745 2745 2745 2745 2745 2744 2744 2744 2744 2744 2744 2744 2744 2745 2745 2746 2746 2747 2748 2748 2749 2750 2751 2753 2755 2757 2759
2755 2757 2758 2759 2760 2761 2762 2762 2763 2763 2763 2764 2764 2764 2765 2765 2764 2764 2763 2763 2762 2762 2761 2760 2760 2759 2759 2758 2758 2757 2757 2756 2755 2754 2753 2752 2751 2751 2751 2750 2750 2750 2749 2749 2748 2748 2747 2747 2746 2746 2745 2745 2745 2744 2744 2744 2743 2743 2743 2743 2743 2743 2743 2743 2742 2742 2742 2742 2742 2742 2742 2742 2743 2743 2743 2744 2745 2746 2747 2748 2749 2750 2751 2753 2755
2752 2753 2754 2755 2756 2757 2758 2759 2760 2760 2760 2761 2761 2762 2762 2762 2761 2761 2761 2760 2760 2760 2759 2758 2758 2757 2757 2757 2756 2756 2755 2754 2753 2752 2751 2750 2750 2749 2748 2748 2748 2747 2747 2746 2746 2745 2745 2745 2744 2744 2743 2743 2743 2742 2742 2742 2741 2741 2741 2741 2741 2741 2741 2741 2741 2741 2740 2740 2740 2740 2740 2740 2741 2741 2741 2742 2742 2743 2744 2745 2746 2747 2748 2750 2751
2748 2749 2751 2752 2753 2754 2755 2756 2756 2757 2757 2758 2758 2759 2759 2759 2759 2758 2758 2758 2758 2757 2757 2756 2756 2755 2755 2755 2754 2754 2753 2752 2751 2750 2750 2749 2748 2747 2747 2746 2746 2745 2745 2744 2744 2743 2743 2742 2742 2742 2741 2741 2740 2740 2740 2739 2739 2739 2739 2739 2739 2738 2739 2739 2739 2739 2739 2739 2738 2738 2738 2739 2739 2739 2739 2740 2740 2741 2741 2742 2743 2744 2745 2747 2748
2744 2746 2747 2748 2749 2750 2751 2753 2753 2754 2754 2755 2755 2755 2756 2756 2756 2756 2756 2755 2755 2755 2755 2754 2754 2754 2753 2753 2753 2752 2751 2751 2750 2749 2748 2747 2746 2746 2745 2745 2744 2743 2743 2742 2742 2741 2740 2740 2740 2739 2739 2738 2738 2738 2737 2737 2737 2737 2736 2736 2736 2736 2736 2736 2736 2736 2736 2737 2737 2737 2737 2737 2737 2737 2737 2737 2738 2738 2739 2740 2740 2741 2742 2743 2744
2741 2743 2744 2745 2746 2747 2748 2749 2750 2751 2751 2752 2752 2752 2753 2753 2753 2753 2753 2753 2753 2753 2753 2752 2752 2751 2751 2751 2751 2750 2750 2749 2748 2747 2746 2745 2744 2744 2743 2743 2742 2742 2741 2740 2740 2739 2738 2738 2737 2737 2736 2736 2736 2735 2735 2735 2734 2734 2734 2734 2734 2733 2734 2734 2734 2734 2734 2734 2734 2734 2735 2735 2735 2735 2735 2735 2736 2736 2737 2737 2738 2739 2740 2740 2741